VE6CPK-13 Weather Reports


time (UTC)temp
C
wind
direction
speed
KPH
gust
KPH
rain 1hr
cm
rain 24hr
cm
rain mn
cm
humidity
%
barometer
mb
20260509055555 14 351 0.0 16.1 0.00 0.00 0.00 33 1006.8
20260509055055 14 351 0.0 16.1 0.00 0.00 0.00 33 1006.8
20260509054555 14 351 0.0 16.1 0.00 0.00 0.00 33 1006.7
20260509054054 14 351 0.0 16.1 0.00 0.00 0.00 35 1006.7
20260509053555 14 351 0.0 16.1 0.00 0.00 0.00 34 1006.6
20260509053055 14 351 0.0 16.1 0.00 0.00 0.00 33 1006.6
20260509052555 14 351 0.0 16.1 0.00 0.00 0.00 32 1006.5
20260509052054 15 17 1.6 16.1 0.00 0.00 0.00 32 1006.5
20260509051554 15 5 1.6 16.1 0.00 0.00 0.00 32 1006.4
20260509051054 15 17 0.0 16.1 0.00 0.00 0.00 32 1006.4
20260509050553 15 24 3.2 16.1 0.00 0.00 0.00 32 1006.3
20260509050053 15 30 0.0 16.1 0.00 0.00 0.00 32 1006.2
20260509045555 15 30 0.0 16.1 0.00 0.00 0.00 32 1006.2
20260509045055 15 30 0.0 16.1 0.00 0.00 0.00 32 1006.2
20260509044555 15 30 0.0 16.1 0.00 0.00 0.00 32 1006.1
20260509044053 15 30 0.0 16.1 0.00 0.00 0.00 32 1006.1
20260509043553 15 30 0.0 16.1 0.00 0.00 0.00 31 1006.1
20260509043054 15 30 0.0 16.1 0.00 0.00 0.00 32 1006.0
20260509042554 15 30 0.0 16.1 0.00 0.00 0.00 31 1006.0
20260509042053 15 30 0.0 16.1 0.00 0.00 0.00 30 1005.9
20260509041553 15 36 0.0 16.1 0.00 0.00 0.00 30 1005.9
20260509041053 15 36 0.0 16.1 0.00 0.00 0.00 30 1005.9
20260509040553 15 36 0.0 16.1 0.00 0.00 0.00 30 1005.8
20260509040054 15 36 0.0 16.1 0.00 0.00 0.00 30 1005.8
20260509035554 15 36 0.0 16.1 0.00 0.00 0.00 30 1005.8
20260509035053 15 36 0.0 16.1 0.00 0.00 0.00 30 1005.7
20260509034553 15 22 1.6 16.1 0.00 0.00 0.00 30 1005.7
20260509034054 16 26 0.0 16.1 0.00 0.00 0.00 30 1005.6
20260509033553 16 26 0.0 16.1 0.00 0.00 0.00 29 1005.5
20260509033054 16 26 1.6 16.1 0.00 0.00 0.00 29 1005.4
20260509032554 16 9 1.6 16.1 0.00 0.00 0.00 29 1005.3
20260509032053 16 57 0.0 16.1 0.00 0.00 0.00 28 1005.2
20260509031553 16 24 1.6 16.1 0.00 0.00 0.00 29 1005.1
20260509031054 16 33 0.0 16.1 0.00 0.00 0.00 29 1005.0
20260509030553 16 34 0.0 16.1 0.00 0.00 0.00 29 1004.9
20260509030052 16 34 0.0 16.1 0.00 0.00 0.00 29 1004.9
20260509025553 16 34 1.6 16.1 0.00 0.00 0.00 29 1004.8
20260509025053 16 12 1.6 16.1 0.00 0.00 0.00 29 1004.7
20260509024553 16 355 1.6 16.1 0.00 0.00 0.00 28 1004.6
20260509024053 16 24 1.6 16.1 0.00 0.00 0.00 28 1004.6
20260509023554 16 20 0.0 16.1 0.00 0.00 0.00 28 1004.5
20260509023054 16 5 1.6 16.1 0.00 0.00 0.00 28 1004.4
20260509022554 16 6 1.6 16.1 0.00 0.00 0.00 28 1004.4
20260509022054 16 4 4.8 16.1 0.00 0.00 0.00 28 1004.3
20260509021554 16 358 1.6 16.1 0.00 0.00 0.00 28 1004.3
20260509021053 17 23 1.6 16.1 0.00 0.00 0.00 28 1004.2
20260509020554 17 26 1.6 16.1 0.00 0.00 0.00 28 1004.2
20260509020054 17 23 1.6 16.1 0.00 0.00 0.00 28 1004.1
20260509015554 17 17 1.6 16.1 0.00 0.00 0.00 28 1004.0
20260509015054 17 7 3.2 16.1 0.00 0.00 0.00 28 1003.9
20260509014553 17 21 3.2 16.1 0.00 0.00 0.00 28 1003.9
20260509014053 17 21 3.2 16.1 0.00 0.00 0.00 28 1004.0
20260509013553 17 15 3.2 16.1 0.00 0.00 0.00 28 1003.9
20260509013052 17 7 1.6 16.1 0.00 0.00 0.00 27 1003.9
20260509012553 17 37 3.2 16.1 0.00 0.00 0.00 27 1003.9
20260509012053 17 18 3.2 16.1 0.00 0.00 0.00 27 1003.8
20260509011554 17 357 3.2 16.1 0.00 0.00 0.00 27 1003.8
20260509011053 17 15 3.2 16.1 0.00 0.00 0.00 27 1003.8
20260509010553 17 355 1.6 16.1 0.00 0.00 0.00 27 1003.7
20260509010052 17 24 1.6 16.1 0.00 0.00 0.00 27 1003.7
20260509005554 17 4 3.2 16.1 0.00 0.00 0.00 27 1003.6
20260509005053 17 26 3.2 16.1 0.00 0.00 0.00 26 1003.5
20260509004552 18 5 1.6 16.1 0.00 0.00 0.00 26 1003.5
20260509004053 18 36 1.6 16.1 0.00 0.00 0.00 26 1003.4
20260509003554 18 38 3.2 16.1 0.00 0.00 0.00 26 1003.4
20260509003053 18 358 3.2 16.1 0.00 0.00 0.00 26 1003.4
20260509002554 18 7 4.8 16.1 0.00 0.00 0.00 25 1003.4
20260509002054 18 27 4.8 16.1 0.00 0.00 0.00 25 1003.4
20260509001552 18 12 3.2 16.1 0.00 0.00 0.00 24 1003.4
20260509001054 18 23 4.8 16.1 0.00 0.00 0.00 25 1003.4
20260509000553 18 19 4.8 16.1 0.00 0.00 0.00 24 1003.4
20260509000053 18 14 3.2 16.1 0.00 0.00 0.00 24 1003.4
20260508235553 18 42 1.6 16.1 0.00 0.00 0.00 24 1003.4
20260508235053 18 13 1.6 16.1 0.00 0.00 0.00 25 1003.4
20260508234553 18 10 4.8 16.1 0.00 0.00 0.00 24 1003.4
20260508234053 18 20 3.2 16.1 0.00 0.00 0.00 24 1003.4
20260508233553 18 25 3.2 16.1 0.00 0.00 0.00 24 1003.5
20260508233052 18 6 4.8 12.9 0.00 0.00 0.00 24 1003.4
20260508232552 18 19 1.6 12.9 0.00 0.00 0.00 25 1003.3
20260508232052 18 15 1.6 12.9 0.00 0.00 0.00 24 1003.3
20260508231552 18 7 3.2 12.9 0.00 0.00 0.00 24 1003.3
20260508231052 19 17 3.2 12.9 0.00 0.00 0.00 24 1003.3
20260508230552 19 29 4.8 12.9 0.00 0.00 0.00 24 1003.3
20260508230054 19 34 4.8 12.9 0.00 0.00 0.00 24 1003.3
20260508225553 19 11 1.6 12.9 0.00 0.00 0.00 23 1003.2
20260508225053 19 30 3.2 12.9 0.00 0.00 0.00 24 1003.2
20260508224553 19 3 8.0 12.9 0.00 0.00 0.00 23 1003.2
20260508224053 19 18 0.0 12.9 0.00 0.00 0.00 23 1003.2
20260508223553 19 0 0.0 12.9 0.00 0.00 0.00 23 1003.1
20260508223053 20 358 1.6 12.9 0.00 0.00 0.00 23 1003.0
20260508222552 20 5 0.0 12.9 0.00 0.00 0.00 23 1003.0
20260508222052 20 12 1.6 12.9 0.00 0.00 0.00 23 1003.0
20260508221552 20 343 1.6 12.9 0.00 0.00 0.00 23 1003.0
20260508221052 20 343 1.6 12.9 0.00 0.00 0.00 23 1003.0
20260508220552 20 7 1.6 12.9 0.00 0.00 0.00 22 1002.9
20260508220052 20 0 0.0 12.9 0.00 0.00 0.00 23 1003.0
20260508215552 20 358 0.0 12.9 0.00 0.00 0.00 23 1003.0
20260508215052 21 350 0.0 12.9 0.00 0.00 0.00 22 1003.0
20260508214553 21 355 0.0 12.9 0.00 0.00 0.00 22 1003.0
20260508214053 21 5 1.6 12.9 0.00 0.00 0.00 22 1003.0
20260508213553 21 355 1.6 12.9 0.00 0.00 0.00 22 1003.0
20260508213052 21 5 1.6 12.9 0.00 0.00 0.00 22 1003.1
20260508212552 21 11 0.0 12.9 0.00 0.00 0.00 23 1003.0
20260508212052 21 10 0.0 12.9 0.00 0.00 0.00 22 1003.1
20260508211553 21 355 0.0 12.9 0.00 0.00 0.00 22 1003.1
20260508211053 21 355 1.6 12.9 0.00 0.00 0.00 23 1003.1
20260508210553 21 355 0.0 12.9 0.00 0.00 0.00 23 1003.1
20260508210053 21 355 1.6 12.9 0.00 0.00 0.00 22 1003.1
20260508205552 21 355 0.0 12.9 0.00 0.00 0.00 23 1003.2
20260508205052 21 5 0.0 12.9 0.00 0.00 0.00 22 1003.1
20260508204552 21 5 1.6 12.9 0.00 0.00 0.00 22 1003.2
20260508204053 21 2 0.0 12.9 0.00 0.00 0.00 23 1003.2
20260508203552 21 1 1.6 12.9 0.00 0.00 0.00 22 1003.3
20260508203052 21 0 0.0 12.9 0.00 0.00 0.00 23 1003.4
20260508202552 21 0 0.0 12.9 0.00 0.00 0.00 23 1003.3
20260508202052 21 0 0.0 12.9 0.00 0.00 0.00 23 1003.3
20260508201552 21 0 1.6 12.9 0.00 0.00 0.00 22 1003.3
20260508201052 21 24 0.0 12.9 0.00 0.00 0.00 22 1003.3
20260508200553 21 6 1.6 12.9 0.00 0.00 0.00 22 1003.3
20260508200053 21 20 0.0 12.9 0.00 0.00 0.00 23 1003.3
20260508195553 21 8 4.8 12.9 0.00 0.00 0.00 22 1003.4
20260508195052 21 32 3.2 12.9 0.00 0.00 0.00 21 1003.4
20260508194552 21 340 0.0 12.9 0.00 0.00 0.00 23 1003.5
20260508194051 21 3 4.8 12.9 0.00 0.00 0.00 22 1003.5
20260508193551 21 355 0.0 12.9 0.00 0.00 0.00 22 1003.6
20260508193051 21 22 3.2 12.9 0.00 0.00 0.00 22 1003.6
20260508192552 21 30 1.6 12.9 0.00 0.00 0.00 22 1003.6
20260508192051 21 335 1.6 12.9 0.00 0.00 0.00 21 1003.7
20260508191553 21 27 1.6 12.9 0.00 0.00 0.00 22 1003.8
20260508191052 21 28 0.0 12.9 0.00 0.00 0.00 23 1003.9
20260508190551 21 12 0.0 12.9 0.00 0.00 0.00 24 1004.0
20260508190053 21 12 1.6 12.9 0.00 0.00 0.00 23 1004.0
20260508185553 21 0 1.6 12.9 0.00 0.00 0.00 23 1004.1
20260508185053 20 355 1.6 12.9 0.00 0.00 0.00 22 1004.2
20260508184552 21 22 1.6 12.9 0.00 0.00 0.00 23 1004.3
20260508184053 21 7 3.2 12.9 0.00 0.00 0.00 23 1004.3
20260508183551 21 339 0.0 12.9 0.00 0.00 0.00 23 1004.3
20260508183053 21 334 4.8 12.9 0.00 0.00 0.00 22 1004.5
20260508182552 20 34 0.0 12.9 0.00 0.00 0.00 24 1004.4
20260508182052 20 26 0.0 12.9 0.00 0.00 0.00 24 1004.4
20260508181552 20 21 0.0 12.9 0.00 0.00 0.00 23 1004.4
20260508181053 20 23 0.0 12.9 0.00 0.00 0.00 24 1004.5
20260508180552 19 341 0.0 12.9 0.00 0.00 0.00 25 1004.6
20260508180052 19 15 1.6 12.9 0.00 0.00 0.00 24 1004.6
20260508175553 19 66 0.0 12.9 0.00 0.00 0.00 25 1004.5
20260508175052 19 66 0.0 12.9 0.00 0.00 0.00 25 1004.6
20260508174552 19 66 0.0 12.9 0.00 0.00 0.00 25 1004.6
20260508174056 18 9 1.6 12.9 0.00 0.00 0.00 26 1004.7
20260508173557 18 14 0.0 12.9 0.00 0.00 0.00 25 1004.6
20260508173056 18 117 0.0 12.9 0.00 0.00 0.00 27 1004.6
20260508172557 18 59 0.0 12.9 0.00 0.00 0.00 26 1004.6
20260508172057 18 17 1.6 12.9 0.00 0.00 0.00 26 1004.7
20260508171556 18 9 1.6 12.9 0.00 0.00 0.00 26 1004.8
20260508171056 17 29 0.0 12.9 0.00 0.00 0.00 27 1004.7
20260508170555 18 32 0.0 12.9 0.00 0.00 0.00 27 1004.8
20260508170057 18 41 0.0 12.9 0.00 0.00 0.00 26 1004.9
20260508165557 17 22 0.0 12.9 0.00 0.00 0.00 26 1004.9
20260508165056 17 20 0.0 12.9 0.00 0.00 0.00 27 1004.9
20260508164555 17 70 0.0 12.9 0.00 0.00 0.00 27 1004.9
20260508164055 17 0 0.0 12.9 0.00 0.00 0.00 28 1004.8
20260508163557 17 10 0.0 12.9 0.00 0.00 0.00 29 1004.9
20260508163055 17 9 0.0 12.9 0.00 0.00 0.00 31 1004.9
20260508162555 17 17 0.0 12.9 0.00 0.00 0.00 30 1004.9
20260508162057 16 80 0.0 12.9 0.00 0.00 0.00 31 1004.9
20260508161556 16 24 0.0 12.9 0.00 0.00 0.00 32 1004.9
20260508161056 16 332 0.0 12.9 0.00 0.00 0.00 32 1004.9
20260508160556 16 5 1.6 12.9 0.00 0.00 0.00 32 1005.0
20260508160056 15 5 0.0 12.9 0.00 0.00 0.00 33 1005.0
20260508155556 15 338 1.6 12.9 0.00 0.00 0.00 34 1005.0
20260508155114 15 5 0.0 12.9 0.00 0.00 0.00 35 1004.9
20260508154614 15 9 0.0 9.7 0.00 0.00 0.00 34 1005.0
20260508154115 14 9 0.0 9.7 0.00 0.00 0.00 35 1005.0
20260508153615 14 9 1.6 9.7 0.00 0.00 0.00 34 1004.9
20260508153116 14 119 0.0 9.7 0.00 0.00 0.00 35 1004.9
20260508152614 14 123 0.0 9.7 0.00 0.00 0.00 35 1004.9
20260508152114 13 123 0.0 9.7 0.00 0.00 0.00 36 1005.0
20260508151614 13 40 0.0 9.7 0.00 0.00 0.00 36 1005.0
20260508151114 13 48 1.6 9.7 0.00 0.00 0.00 36 1005.0
20260508150614 13 335 0.0 9.7 0.00 0.00 0.00 35 1005.0
20260508150114 13 342 1.6 9.7 0.00 0.00 0.00 36 1005.0
20260508145614 13 15 0.0 6.4 0.00 0.00 0.00 35 1004.9
20260508145115 13 15 0.0 6.4 0.00 0.00 0.00 36 1004.9
20260508144615 12 61 0.0 6.4 0.00 0.00 0.00 36 1004.9
20260508144115 12 66 0.0 6.4 0.00 0.00 0.00 36 1005.0
20260508143615 12 77 0.0 6.4 0.00 0.00 0.00 36 1005.0
20260508143114 12 77 0.0 6.4 0.00 0.00 0.00 36 1004.9
20260508142614 12 94 0.0 6.4 0.00 0.00 0.00 37 1004.9
20260508142114 12 94 0.0 6.4 0.00 0.00 0.00 38 1004.9
20260508141614 11 94 0.0 6.4 0.00 0.00 0.00 39 1005.0
20260508141114 11 94 0.0 6.4 0.00 0.00 0.00 39 1005.0
20260508140614 11 94 0.0 6.4 0.00 0.00 0.00 39 1005.1
20260508140113 11 94 0.0 6.4 0.00 0.00 0.00 40 1005.2
20260508135615 11 142 0.0 6.4 0.00 0.00 0.00 41 1005.2
20260508135115 11 142 0.0 6.4 0.00 0.00 0.00 40 1005.2
20260508134615 11 142 0.0 6.4 0.00 0.00 0.00 40 1005.1
20260508134114 11 142 0.0 6.4 0.00 0.00 0.00 40 1005.1
20260508133614 11 205 0.0 4.8 0.00 0.00 0.00 40 1005.0
20260508133114 11 205 0.0 4.8 0.00 0.00 0.00 41 1005.1
20260508132614 11 205 0.0 4.8 0.00 0.00 0.00 40 1005.0
20260508132114 10 205 0.0 4.8 0.00 0.00 0.00 40 1005.0
20260508131614 10 205 0.0 4.8 0.00 0.00 0.00 41 1005.0
20260508131115 10 205 0.0 4.8 0.00 0.00 0.00 41 1005.0
20260508130613 10 205 0.0 4.8 0.00 0.00 0.00 41 1005.0
20260508130114 10 205 0.0 4.8 0.00 0.00 0.00 42 1005.0
20260508125614 10 205 0.0 4.8 0.00 0.00 0.00 41 1005.0
20260508125114 10 205 0.0 4.8 0.00 0.00 0.00 42 1005.0
20260508124614 10 205 0.0 4.8 0.00 0.00 0.00 42 1005.0
20260508124115 10 205 0.0 4.8 0.00 0.00 0.00 43 1005.0
20260508123615 10 205 0.0 4.8 0.00 0.00 0.00 43 1005.0
20260508123114 10 205 0.0 4.8 0.00 0.00 0.00 43 1005.0
20260508122615 10 205 0.0 4.8 0.00 0.00 0.00 43 1005.0
20260508122113 10 207 0.0 4.8 0.00 0.00 0.00 44 1005.0
20260508121614 10 207 0.0 4.8 0.00 0.00 0.00 44 1004.9
20260508121115 10 207 0.0 3.2 0.00 0.00 0.00 44 1004.9
20260508120613 10 207 0.0 3.2 0.00 0.00 0.00 43 1004.8
20260508120113 10 207 0.0 3.2 0.00 0.00 0.00 43 1004.8
20260508115614 10 207 0.0 3.2 0.00 0.00 0.00 44 1004.8
20260508115114 10 207 0.0 3.2 0.00 0.00 0.00 44 1004.9
20260508114615 10 207 0.0 3.2 0.00 0.00 0.00 45 1004.8
20260508114115 10 208 0.0 3.2 0.00 0.00 0.00 46 1004.8
20260508113615 10 208 0.0 3.2 0.00 0.00 0.00 45 1004.8
20260508113113 10 81 0.0 1.6 0.00 0.00 0.00 46 1004.8
20260508112613 10 81 0.0 1.6 0.00 0.00 0.00 46 1004.7
20260508112114 10 81 0.0 1.6 0.00 0.00 0.00 46 1004.7
20260508111613 9 81 0.0 1.6 0.00 0.00 0.00 46 1004.6
20260508111114 9 81 0.0 1.6 0.00 0.00 0.00 47 1004.6
20260508110615 9 81 0.0 1.6 0.00 0.00 0.00 48 1004.6
20260508105933 9 81 0.0 1.6 0.00 0.00 0.00 49 1004.6
20260508105433 9 81 0.0 1.6 0.00 0.00 0.00 49 1004.6
20260508105028 9 81 0.0 1.6 0.00 0.00 0.00 49 1004.7
20260508104528 9 81 0.0 1.6 0.00 0.00 0.00 50 1004.6
20260508104029 9 81 0.0 1.6 0.00 0.00 0.00 50 1004.6
20260508103527 9 81 0.0 1.6 0.00 0.00 0.00 50 1004.5
20260508103027 8 81 0.0 1.6 0.00 0.00 0.00 51 1004.5
20260508102527 8 71 0.0 1.6 0.00 0.00 0.00 53 1004.5
20260508102028 8 71 0.0 1.6 0.00 0.00 0.00 54 1004.5
20260508101527 8 71 0.0 1.6 0.00 0.00 0.00 54 1004.5
20260508101027 8 71 0.0 1.6 0.00 0.00 0.00 54 1004.4
20260508100527 8 71 0.0 1.6 0.00 0.00 0.00 55 1004.3
20260508100028 9 71 0.0 1.6 0.00 0.00 0.00 55 1004.3
20260508095528 9 71 0.0 1.6 0.00 0.00 0.00 55 1004.3
20260508095028 9 71 0.0 1.6 0.00 0.00 0.00 54 1004.4
20260508094528 9 71 0.0 1.6 0.00 0.00 0.00 53 1004.4
20260508094028 10 71 0.0 1.6 0.00 0.00 0.00 52 1004.4
20260508093527 10 71 0.0 1.6 0.00 0.00 0.00 52 1004.4
20260508092651 10 71 0.0 1.6 0.00 0.00 0.00 52 1004.4
20260508092150 10 71 0.0 1.6 0.00 0.00 0.00 52 1004.4
20260508091651 10 71 0.0 1.6 0.00 0.00 0.00 53 1004.5
20260508091151 10 71 0.0 1.6 0.00 0.00 0.00 53 1004.5
20260508090652 9 71 0.0 1.6 0.00 0.00 0.00 54 1004.6
20260508090152 9 71 0.0 1.6 0.00 0.00 0.00 54 1004.6
20260508085652 9 71 0.0 1.6 0.00 0.00 0.00 54 1004.6
20260508085150 10 71 0.0 1.6 0.00 0.00 0.00 54 1004.7
20260508084651 10 71 0.0 1.6 0.00 0.00 0.00 54 1004.7
20260508084151 10 71 0.0 1.6 0.00 0.00 0.00 54 1004.7
20260508083652 10 71 0.0 1.6 0.00 0.00 0.00 55 1004.7
20260508083151 10 71 0.0 1.6 0.00 0.00 0.00 54 1004.8
20260508082651 10 71 0.0 1.6 0.00 0.00 0.00 55 1004.7
20260508082151 10 71 0.0 1.6 0.00 0.00 0.00 55 1004.7
20260508081651 10 71 0.0 1.6 0.00 0.00 0.00 54 1004.7
20260508081152 10 71 0.0 1.6 0.00 0.00 0.00 54 1004.7
20260508080652 10 71 0.0 1.6 0.00 0.00 0.00 54 1004.7
20260508080152 10 71 0.0 1.6 0.00 0.00 0.00 54 1004.8
20260508075651 10 71 0.0 1.6 0.00 0.00 0.00 54 1004.7
20260508075151 10 71 0.0 1.6 0.00 0.00 0.00 54 1004.7
20260508074651 10 71 0.0 1.6 0.00 0.00 0.00 54 1004.7
20260508074150 10 71 0.0 1.6 0.00 0.00 0.00 54 1004.7
20260508073651 10 71 0.0 1.6 0.00 0.00 0.00 54 1004.7
20260508073150 11 71 0.0 1.6 0.00 0.00 0.00 54 1004.7
20260508072651 11 71 0.0 1.6 0.00 0.00 0.00 54 1004.7
20260508072151 11 71 0.0 1.6 0.00 0.00 0.00 54 1004.8
20260508071651 11 71 0.0 0.0 0.00 0.00 0.00 54 1004.8
20260508071151 11 71 0.0 0.0 0.00 0.00 0.00 53 1004.7
20260508070651 11 71 0.0 0.0 0.00 0.00 0.00 53 1004.7
20260508070152 11 71 0.0 0.0 0.00 0.00 0.00 52 1004.8
20260508065652 11 71 0.0 0.0 0.00 0.00 0.00 52 1004.8
20260508065150 11 71 0.0 0.0 0.00 0.00 0.00 51 1004.8
20260508064650 11 71 0.0 0.0 0.00 0.00 0.00 51 1004.8
20260508064151 11 71 0.0 0.0 0.00 0.00 0.00 51 1004.8
20260508063651 11 71 0.0 0.0 0.00 0.00 0.00 50 1004.8
20260508063151 11 71 0.0 0.0 0.00 0.00 0.00 50 1004.8
20260508062650 11 71 0.0 0.0 0.00 0.00 0.00 50 1004.9
20260508062151 11 71 0.0 0.0 0.00 0.00 0.00 50 1004.9
20260508061651 11 71 0.0 0.0 0.00 0.00 0.00 50 1005.0
20260508061151 12 71 0.0 0.0 0.00 0.00 0.00 50 1005.0
20260508060651 12 71 0.0 0.0 0.00 0.00 0.00 49 1005.0
20260508060151 12 71 0.0 0.0 0.00 0.00 0.00 49 1004.9